Year,Month,Day,Hour,Minute,Value (Times are PST for temperature in C)
2008,05,21,00,00,8.40
2008,05,21,00,01,8.40
2008,05,21,00,02,8.40
2008,05,21,00,03,8.40
2008,05,21,00,04,8.40
2008,05,21,00,05,8.40
2008,05,21,00,06,8.40
2008,05,21,00,07,8.30
2008,05,21,00,08,8.30
2008,05,21,00,09,8.30
2008,05,21,00,10,8.30
2008,05,21,00,11,8.30
2008,05,21,00,12,8.30
2008,05,21,00,13,8.30
2008,05,21,00,14,8.30
2008,05,21,00,15,8.30
2008,05,21,00,16,8.30
2008,05,21,00,17,8.30
2008,05,21,00,18,8.30
2008,05,21,00,19,8.30
2008,05,21,00,20,8.30
2008,05,21,00,21,8.20
2008,05,21,00,22,8.20
2008,05,21,00,23,8.20
2008,05,21,00,24,8.20
2008,05,21,00,25,8.20
2008,05,21,00,26,8.20
2008,05,21,00,27,8.20
2008,05,21,00,28,8.20
2008,05,21,00,29,8.20
2008,05,21,00,30,8.20
2008,05,21,00,31,8.20
2008,05,21,00,32,8.20
2008,05,21,00,33,8.20
2008,05,21,00,34,8.20
2008,05,21,00,35,8.20
2008,05,21,00,36,8.30
2008,05,21,00,37,8.30
2008,05,21,00,38,8.30
2008,05,21,00,39,8.30
2008,05,21,00,40,8.30
2008,05,21,00,41,8.30
2008,05,21,00,42,8.30
2008,05,21,00,43,8.30
2008,05,21,00,44,8.30
2008,05,21,00,45,8.30
2008,05,21,00,46,8.30
2008,05,21,00,47,8.30
2008,05,21,00,48,8.30
2008,05,21,00,49,8.30
2008,05,21,00,50,8.40
2008,05,21,00,51,8.40
2008,05,21,00,52,8.40
2008,05,21,00,53,8.40
2008,05,21,00,54,8.40
2008,05,21,00,55,8.40
2008,05,21,00,56,8.40
2008,05,21,00,57,8.40
2008,05,21,00,58,8.40
2008,05,21,00,59,8.40
2008,05,21,01,00,8.40
2008,05,21,01,01,8.40
2008,05,21,01,02,8.40
2008,05,21,01,03,8.40
2008,05,21,01,04,8.40
2008,05,21,01,05,8.40
2008,05,21,01,06,8.40
2008,05,21,01,07,8.40
2008,05,21,01,08,8.40
2008,05,21,01,09,8.40
2008,05,21,01,10,8.40
2008,05,21,01,11,8.40
2008,05,21,01,12,8.40
2008,05,21,01,13,8.40
2008,05,21,01,14,8.40
2008,05,21,01,15,8.40
2008,05,21,01,16,8.40
2008,05,21,01,17,8.40
2008,05,21,01,18,8.40
2008,05,21,01,19,8.40
2008,05,21,01,20,8.40
2008,05,21,01,21,8.40
2008,05,21,01,22,8.40
2008,05,21,01,23,8.40
2008,05,21,01,24,8.40
2008,05,21,01,25,8.40
2008,05,21,01,26,8.40
2008,05,21,01,27,8.40
2008,05,21,01,28,8.40
2008,05,21,01,29,8.40
2008,05,21,01,30,8.40
2008,05,21,01,31,8.40
2008,05,21,01,32,8.40
2008,05,21,01,33,8.40
2008,05,21,01,34,8.40
2008,05,21,01,35,8.40
2008,05,21,01,36,8.30
2008,05,21,01,37,8.40
2008,05,21,01,38,8.30
2008,05,21,01,39,8.30
2008,05,21,01,40,8.30
2008,05,21,01,41,8.30
2008,05,21,01,42,8.30
2008,05,21,01,43,8.30
2008,05,21,01,44,8.30
2008,05,21,01,45,8.30
2008,05,21,01,46,8.30
2008,05,21,01,47,8.30
2008,05,21,01,48,8.30
2008,05,21,01,49,8.30
2008,05,21,01,50,8.30
2008,05,21,01,51,8.30
2008,05,21,01,52,8.30
2008,05,21,01,53,8.30
2008,05,21,01,54,8.30
2008,05,21,01,55,8.30
2008,05,21,01,56,8.20
2008,05,21,01,57,8.20
2008,05,21,01,58,8.20
2008,05,21,01,59,8.20
2008,05,21,02,00,8.20
2008,05,21,02,01,8.20
2008,05,21,02,02,8.20
2008,05,21,02,03,8.20
2008,05,21,02,04,8.20
2008,05,21,02,05,8.20
2008,05,21,02,06,8.20
2008,05,21,02,07,8.20
2008,05,21,02,08,8.20
2008,05,21,02,09,8.10
2008,05,21,02,10,8.10
2008,05,21,02,11,8.10
2008,05,21,02,12,8.10
2008,05,21,02,13,8.10
2008,05,21,02,14,8.20
2008,05,21,02,15,8.20
2008,05,21,02,16,8.20
2008,05,21,02,17,8.20
2008,05,21,02,18,8.20
2008,05,21,02,19,8.20
2008,05,21,02,20,8.20
2008,05,21,02,21,8.20
2008,05,21,02,22,8.20
2008,05,21,02,23,8.20
2008,05,21,02,24,8.20
2008,05,21,02,25,8.20
2008,05,21,02,26,8.20
2008,05,21,02,27,8.20
2008,05,21,02,28,8.20
2008,05,21,02,29,8.20
2008,05,21,02,30,8.20
2008,05,21,02,31,8.20
2008,05,21,02,32,8.20
2008,05,21,02,33,8.20
2008,05,21,02,34,8.20
2008,05,21,02,35,8.20
2008,05,21,02,36,8.10
2008,05,21,02,37,8.10
2008,05,21,02,38,8.10
2008,05,21,02,39,8.10
2008,05,21,02,40,8.00
2008,05,21,02,41,8.00
2008,05,21,02,42,8.00
2008,05,21,02,43,8.00
2008,05,21,02,44,7.90
2008,05,21,02,45,7.90
2008,05,21,02,46,7.90
2008,05,21,02,47,7.90
2008,05,21,02,48,7.90
2008,05,21,02,49,7.90
2008,05,21,02,50,7.90
2008,05,21,02,51,7.90
2008,05,21,02,52,7.90
2008,05,21,02,53,7.90
2008,05,21,02,54,7.90
2008,05,21,02,55,7.90
2008,05,21,02,56,7.90
2008,05,21,02,57,7.90
2008,05,21,02,58,7.90
2008,05,21,02,59,7.90
2008,05,21,03,00,7.90
2008,05,21,03,01,7.90
2008,05,21,03,02,7.90
2008,05,21,03,03,7.80
2008,05,21,03,04,7.80
2008,05,21,03,05,7.80
2008,05,21,03,06,7.80
2008,05,21,03,07,7.80
2008,05,21,03,08,7.80
2008,05,21,03,09,7.80
2008,05,21,03,10,7.90
2008,05,21,03,11,7.90
2008,05,21,03,12,7.90
2008,05,21,03,13,7.90
2008,05,21,03,14,7.90
2008,05,21,03,15,7.90
2008,05,21,03,16,7.90
2008,05,21,03,17,7.90
2008,05,21,03,18,7.90
2008,05,21,03,19,7.90
2008,05,21,03,20,7.90
2008,05,21,03,21,7.90
2008,05,21,03,22,7.90
2008,05,21,03,23,7.90
2008,05,21,03,24,7.90
2008,05,21,03,25,7.90
2008,05,21,03,26,7.90
2008,05,21,03,27,7.90
2008,05,21,03,28,7.90
2008,05,21,03,29,7.90
2008,05,21,03,30,7.90
2008,05,21,03,31,7.90
2008,05,21,03,32,7.90
2008,05,21,03,33,7.90
2008,05,21,03,34,7.90
2008,05,21,03,35,7.90
2008,05,21,03,36,7.90
2008,05,21,03,37,7.90
2008,05,21,03,38,7.90
2008,05,21,03,39,7.90
2008,05,21,03,40,7.90
2008,05,21,03,41,7.90
2008,05,21,03,42,7.90
2008,05,21,03,43,7.90
2008,05,21,03,44,7.90
2008,05,21,03,45,7.90
2008,05,21,03,46,7.90
2008,05,21,03,47,7.90
2008,05,21,03,48,7.90
2008,05,21,03,49,7.90
2008,05,21,03,50,7.90
2008,05,21,03,51,7.90
2008,05,21,03,52,7.90
2008,05,21,03,53,7.90
2008,05,21,03,54,7.90
2008,05,21,03,55,7.90
2008,05,21,03,56,7.90
2008,05,21,03,57,7.90
2008,05,21,03,58,7.90
2008,05,21,03,59,7.90
2008,05,21,04,00,7.90
2008,05,21,04,01,8.00
2008,05,21,04,02,8.00
2008,05,21,04,03,8.00
2008,05,21,04,04,8.00
2008,05,21,04,05,8.00
2008,05,21,04,06,8.00
2008,05,21,04,07,8.00
2008,05,21,04,08,8.00
2008,05,21,04,09,8.00
2008,05,21,04,10,8.10
2008,05,21,04,11,8.10
2008,05,21,04,12,8.10
2008,05,21,04,13,8.10
2008,05,21,04,14,8.10
2008,05,21,04,15,8.10
2008,05,21,04,16,8.10
2008,05,21,04,17,8.10
2008,05,21,04,18,8.10
2008,05,21,04,19,8.10
2008,05,21,04,20,8.10
2008,05,21,04,21,8.10
2008,05,21,04,22,8.10
2008,05,21,04,23,8.10
2008,05,21,04,24,8.10
2008,05,21,04,25,8.10
2008,05,21,04,26,8.10
2008,05,21,04,27,8.10
2008,05,21,04,28,8.10
2008,05,21,04,29,8.10
2008,05,21,04,30,8.10
2008,05,21,04,31,8.10
2008,05,21,04,32,8.10
2008,05,21,04,33,8.10
2008,05,21,04,34,8.10
2008,05,21,04,35,8.10
2008,05,21,04,36,8.10
2008,05,21,04,37,8.10
2008,05,21,04,38,8.10
2008,05,21,04,39,8.10
2008,05,21,04,40,8.10
2008,05,21,04,41,8.10
2008,05,21,04,42,8.10
2008,05,21,04,43,8.10
2008,05,21,04,44,8.10
2008,05,21,04,45,8.10
2008,05,21,04,46,8.10
2008,05,21,04,47,8.10
2008,05,21,04,48,8.10
2008,05,21,04,49,8.10
2008,05,21,04,50,8.10
2008,05,21,04,51,8.10
2008,05,21,04,52,8.10
2008,05,21,04,53,8.10
2008,05,21,04,54,8.10
2008,05,21,04,55,8.10
2008,05,21,04,56,8.10
2008,05,21,04,57,8.10
2008,05,21,04,58,8.10
2008,05,21,04,59,8.10
2008,05,21,05,00,8.00
2008,05,21,05,01,8.00
2008,05,21,05,02,8.00
2008,05,21,05,03,8.00
2008,05,21,05,04,8.00
2008,05,21,05,05,8.00
2008,05,21,05,06,8.10
2008,05,21,05,07,8.10
2008,05,21,05,08,8.10
2008,05,21,05,09,8.10
2008,05,21,05,10,8.10
2008,05,21,05,11,8.10
2008,05,21,05,12,8.10
2008,05,21,05,13,8.10
2008,05,21,05,14,8.10
2008,05,21,05,15,8.10
2008,05,21,05,16,8.10
2008,05,21,05,17,8.20
2008,05,21,05,18,8.20
2008,05,21,05,19,8.20
2008,05,21,05,20,8.20
2008,05,21,05,21,8.20
2008,05,21,05,22,8.20
2008,05,21,05,23,8.20
2008,05,21,05,24,8.20
2008,05,21,05,25,8.20
2008,05,21,05,26,8.20
2008,05,21,05,27,8.20
2008,05,21,05,28,8.20
2008,05,21,05,29,8.20
2008,05,21,05,30,8.20
2008,05,21,05,31,8.20
2008,05,21,05,32,8.20
2008,05,21,05,33,8.20
2008,05,21,05,34,8.20
2008,05,21,05,35,8.20
2008,05,21,05,36,8.20
2008,05,21,05,37,8.20
2008,05,21,05,38,8.20
2008,05,21,05,39,8.20
2008,05,21,05,40,8.20
2008,05,21,05,41,8.20
2008,05,21,05,42,8.20
2008,05,21,05,43,8.20
2008,05,21,05,44,8.20
2008,05,21,05,45,8.20
2008,05,21,05,46,8.20
2008,05,21,05,47,8.20
2008,05,21,05,48,8.20
2008,05,21,05,49,8.20
2008,05,21,05,50,8.20
2008,05,21,05,51,8.20
2008,05,21,05,52,8.20
2008,05,21,05,53,8.20
2008,05,21,05,54,8.20
2008,05,21,05,55,8.20
2008,05,21,05,56,8.20
2008,05,21,05,57,8.20
2008,05,21,05,58,8.20
2008,05,21,05,59,8.20
2008,05,21,06,00,8.20
2008,05,21,06,01,8.20
2008,05,21,06,02,8.20
2008,05,21,06,03,8.20
2008,05,21,06,04,8.20
2008,05,21,06,05,8.20
2008,05,21,06,06,8.20
2008,05,21,06,07,8.20
2008,05,21,06,08,8.20
2008,05,21,06,09,8.30
2008,05,21,06,10,8.30
2008,05,21,06,11,8.30
2008,05,21,06,12,8.30
2008,05,21,06,13,8.30
2008,05,21,06,14,8.30
2008,05,21,06,15,8.30
2008,05,21,06,16,8.30
2008,05,21,06,17,8.30
2008,05,21,06,18,8.30
2008,05,21,06,19,8.30
2008,05,21,06,20,8.30
2008,05,21,06,21,8.30
2008,05,21,06,22,8.30
2008,05,21,06,23,8.30
2008,05,21,06,24,8.30
2008,05,21,06,25,8.30
2008,05,21,06,26,8.30
2008,05,21,06,27,8.30
2008,05,21,06,28,8.30
2008,05,21,06,29,8.30
2008,05,21,06,30,8.30
2008,05,21,06,31,8.30
2008,05,21,06,32,8.40
2008,05,21,06,33,8.40
2008,05,21,06,34,8.40
2008,05,21,06,35,8.40
2008,05,21,06,36,8.40
2008,05,21,06,37,8.40
2008,05,21,06,38,8.40
2008,05,21,06,39,8.40
2008,05,21,06,40,8.40
2008,05,21,06,41,8.50
2008,05,21,06,42,8.50
2008,05,21,06,43,8.50
2008,05,21,06,44,8.50
2008,05,21,06,45,8.60
2008,05,21,06,46,8.60
2008,05,21,06,47,8.60
2008,05,21,06,48,8.60
2008,05,21,06,49,8.60
2008,05,21,06,50,8.60
2008,05,21,06,51,8.60
2008,05,21,06,52,8.60
2008,05,21,06,53,8.60
2008,05,21,06,54,8.60
2008,05,21,06,55,8.60
2008,05,21,06,56,8.70
2008,05,21,06,57,8.70
2008,05,21,06,58,8.70
2008,05,21,06,59,8.70
2008,05,21,07,00,8.70
2008,05,21,07,01,8.70
2008,05,21,07,02,8.70
2008,05,21,07,03,8.70
2008,05,21,07,04,8.70
2008,05,21,07,05,8.70
2008,05,21,07,06,8.70
2008,05,21,07,07,8.70
2008,05,21,07,08,8.70
2008,05,21,07,09,8.80
2008,05,21,07,10,8.80
2008,05,21,07,11,8.80
2008,05,21,07,12,8.80
2008,05,21,07,13,8.80
2008,05,21,07,14,8.80
2008,05,21,07,15,8.80
2008,05,21,07,16,8.80
2008,05,21,07,17,8.80
2008,05,21,07,18,8.80
2008,05,21,07,19,8.80
2008,05,21,07,20,8.80
2008,05,21,07,21,8.80
2008,05,21,07,22,8.80
2008,05,21,07,23,8.90
2008,05,21,07,24,8.90
2008,05,21,07,25,8.90
2008,05,21,07,26,8.90
2008,05,21,07,27,8.90
2008,05,21,07,28,8.90
2008,05,21,07,29,8.90
2008,05,21,07,30,8.90
2008,05,21,07,31,8.90
2008,05,21,07,32,8.90
2008,05,21,07,33,8.90
2008,05,21,07,34,8.90
2008,05,21,07,35,8.90
2008,05,21,07,36,8.90
2008,05,21,07,37,9.00
2008,05,21,07,38,9.00
2008,05,21,07,39,9.00
2008,05,21,07,40,9.00
2008,05,21,07,41,9.00
2008,05,21,07,42,9.00
2008,05,21,07,43,9.10
2008,05,21,07,44,9.10
2008,05,21,07,45,9.10
2008,05,21,07,46,9.10
2008,05,21,07,47,9.10
2008,05,21,07,48,9.20
2008,05,21,07,49,9.20
2008,05,21,07,50,9.20
2008,05,21,07,51,9.20
2008,05,21,07,52,9.20
2008,05,21,07,53,9.20
2008,05,21,07,54,9.30
2008,05,21,07,55,9.30
2008,05,21,07,56,9.30
2008,05,21,07,57,9.30
2008,05,21,07,58,9.30
2008,05,21,07,59,9.30
2008,05,21,08,00,9.40
2008,05,21,08,01,9.30
2008,05,21,08,02,9.30
2008,05,21,08,03,9.30
2008,05,21,08,04,9.30
2008,05,21,08,05,9.30
2008,05,21,08,06,9.30
2008,05,21,08,07,9.30
2008,05,21,08,08,9.30
2008,05,21,08,09,9.30
2008,05,21,08,10,9.30
2008,05,21,08,11,9.30
2008,05,21,08,12,9.30
2008,05,21,08,13,9.30
2008,05,21,08,14,9.30
2008,05,21,08,15,9.30
2008,05,21,08,16,9.30
2008,05,21,08,17,9.30
2008,05,21,08,18,9.30
2008,05,21,08,19,9.30
2008,05,21,08,20,9.30
2008,05,21,08,21,9.30
2008,05,21,08,22,9.30
2008,05,21,08,23,9.30
2008,05,21,08,24,9.30
2008,05,21,08,25,9.30
2008,05,21,08,26,9.30
2008,05,21,08,27,9.30
2008,05,21,08,28,9.30
2008,05,21,08,29,9.30
2008,05,21,08,30,9.30
2008,05,21,08,31,9.30
2008,05,21,08,32,9.30
2008,05,21,08,33,9.40
2008,05,21,08,34,9.40
2008,05,21,08,35,9.40
2008,05,21,08,36,9.40
2008,05,21,08,37,9.50
2008,05,21,08,38,9.60
2008,05,21,08,39,9.60
2008,05,21,08,40,9.60
2008,05,21,08,41,9.60
2008,05,21,08,42,9.60
2008,05,21,08,43,9.60
2008,05,21,08,44,9.60
2008,05,21,08,45,9.50
2008,05,21,08,46,9.50
2008,05,21,08,47,9.50
2008,05,21,08,48,9.50
2008,05,21,08,49,9.50
2008,05,21,08,50,9.50
2008,05,21,08,51,9.40
2008,05,21,08,52,9.30
2008,05,21,08,53,9.30
2008,05,21,08,54,9.30
2008,05,21,08,55,9.30
2008,05,21,08,56,9.30
2008,05,21,08,57,9.20
2008,05,21,08,58,9.20
2008,05,21,08,59,9.30
2008,05,21,09,00,9.30
2008,05,21,09,01,9.30
2008,05,21,09,02,9.30
2008,05,21,09,03,9.30
2008,05,21,09,04,9.40
2008,05,21,09,05,9.40
2008,05,21,09,06,9.40
2008,05,21,09,07,9.30
2008,05,21,09,08,9.30
2008,05,21,09,09,9.40
2008,05,21,09,10,9.40
2008,05,21,09,11,9.40
2008,05,21,09,12,9.40
2008,05,21,09,13,9.50
2008,05,21,09,14,9.50
2008,05,21,09,15,9.50
2008,05,21,09,16,9.60
2008,05,21,09,17,9.60
2008,05,21,09,18,9.60
2008,05,21,09,19,9.50
2008,05,21,09,20,9.50
2008,05,21,09,21,9.60
2008,05,21,09,22,9.60
2008,05,21,09,23,9.60
2008,05,21,09,24,9.60
2008,05,21,09,25,9.60
2008,05,21,09,26,9.60
2008,05,21,09,27,9.60
2008,05,21,09,28,9.60
2008,05,21,09,29,9.60
2008,05,21,09,30,9.60
2008,05,21,09,31,9.60
2008,05,21,09,32,9.60
2008,05,21,09,33,9.60
2008,05,21,09,34,9.60
2008,05,21,09,35,9.60
2008,05,21,09,36,9.60
2008,05,21,16,41,12.30
2008,05,21,16,42,12.20
2008,05,21,16,43,12.00
2008,05,21,16,44,11.90
2008,05,21,16,45,11.90
2008,05,21,16,46,11.80
2008,05,21,16,47,11.80
2008,05,21,16,48,11.90
2008,05,21,16,49,11.90
2008,05,21,16,50,11.90
2008,05,21,16,51,11.90
2008,05,21,16,52,11.80
2008,05,21,16,53,11.70
2008,05,21,16,54,11.70
2008,05,21,16,55,11.70
2008,05,21,16,56,11.70
2008,05,21,16,57,11.70
2008,05,21,16,58,11.80
2008,05,21,16,59,11.80
2008,05,21,17,00,11.80
2008,05,21,17,01,11.80
2008,05,21,17,02,11.90
2008,05,21,17,03,12.10
2008,05,21,17,04,12.00
2008,05,21,17,05,11.90
2008,05,21,17,06,11.80
2008,05,21,17,07,11.80
2008,05,21,17,08,11.80
2008,05,21,17,09,11.80
2008,05,21,17,10,11.80
2008,05,21,17,11,11.90
2008,05,21,17,12,11.90
2008,05,21,17,13,11.90
2008,05,21,17,14,11.90
2008,05,21,17,15,11.90
2008,05,21,17,16,11.80
2008,05,21,17,17,11.80
2008,05,21,17,18,11.70
2008,05,21,17,19,11.70
2008,05,21,17,20,11.60
2008,05,21,17,21,11.50
2008,05,21,17,22,11.60
2008,05,21,17,23,11.60
2008,05,21,17,24,11.60
2008,05,21,17,25,11.60
2008,05,21,17,26,11.50
2008,05,21,17,27,11.40
2008,05,21,17,28,11.30
2008,05,21,17,29,11.40
2008,05,21,17,30,11.40
2008,05,21,17,31,11.30
2008,05,21,17,32,11.20
2008,05,21,17,33,11.10
2008,05,21,17,34,11.10
2008,05,21,17,35,11.10
2008,05,21,17,36,11.10
2008,05,21,17,37,11.10
2008,05,21,17,38,11.20
2008,05,21,17,39,11.30
2008,05,21,17,40,11.40
2008,05,21,17,41,11.40
2008,05,21,17,42,11.30
2008,05,21,17,43,11.30
2008,05,21,17,44,11.30
2008,05,21,17,45,11.30
2008,05,21,17,46,11.20
2008,05,21,17,47,11.20
2008,05,21,17,48,11.30
2008,05,21,17,49,11.40
2008,05,21,17,50,11.50
2008,05,21,17,51,11.50
2008,05,21,17,52,11.40
2008,05,21,17,53,11.40
2008,05,21,17,54,11.20
2008,05,21,17,55,11.00
2008,05,21,17,56,10.90
2008,05,21,17,57,10.80
2008,05,21,17,58,10.70
2008,05,21,17,59,10.50
2008,05,21,18,00,10.40
2008,05,21,18,01,10.40
2008,05,21,18,02,10.30
2008,05,21,18,03,10.30
2008,05,21,18,04,10.30
2008,05,21,18,05,10.30
2008,05,21,18,06,10.30
2008,05,21,18,07,10.30
2008,05,21,18,08,10.20
2008,05,21,18,09,10.20
2008,05,21,18,10,10.10
2008,05,21,18,11,10.10
2008,05,21,18,12,10.10
2008,05,21,18,13,10.10
2008,05,21,18,14,10.10
2008,05,21,18,15,10.00
2008,05,21,18,16,9.90
2008,05,21,18,17,9.80
2008,05,21,18,18,9.80
2008,05,21,18,19,9.80
2008,05,21,18,20,9.80
2008,05,21,18,21,9.80
2008,05,21,18,22,9.80
2008,05,21,18,23,9.70
2008,05,21,18,24,9.70
2008,05,21,18,25,9.70
2008,05,21,18,26,9.70
2008,05,21,18,27,9.80
2008,05,21,18,28,9.80
2008,05,21,18,29,9.90
2008,05,21,18,30,9.80
2008,05,21,18,31,9.80
2008,05,21,18,32,9.80
2008,05,21,18,33,9.90
2008,05,21,18,34,9.90
2008,05,21,18,35,9.90
2008,05,21,18,36,9.90
2008,05,21,18,37,9.90
2008,05,21,18,38,9.90
2008,05,21,18,39,9.90
2008,05,21,18,40,9.90
2008,05,21,18,41,9.90
2008,05,21,18,42,9.90
2008,05,21,18,43,9.90
2008,05,21,18,44,9.90
2008,05,21,18,45,9.80
2008,05,21,18,46,9.80
2008,05,21,18,47,9.80
2008,05,21,18,48,9.80
2008,05,21,18,49,9.80
2008,05,21,18,50,9.80
2008,05,21,18,51,9.70
2008,05,21,18,52,9.70
2008,05,21,18,53,9.70
2008,05,21,18,54,9.60
2008,05,21,18,55,9.60
2008,05,21,18,56,9.60
2008,05,21,18,57,9.70
2008,05,21,18,58,9.70
2008,05,21,18,59,9.70
2008,05,21,19,00,9.70
2008,05,21,19,01,9.60
2008,05,21,19,02,9.60
2008,05,21,19,03,9.50
2008,05,21,19,04,9.50
2008,05,21,19,05,9.50
2008,05,21,19,06,9.40
2008,05,21,19,07,9.40
2008,05,21,19,08,9.30
2008,05,21,19,09,9.30
2008,05,21,19,10,9.30
2008,05,21,19,11,9.30
2008,05,21,19,12,9.30
2008,05,21,19,13,9.20
2008,05,21,19,14,9.20
2008,05,21,19,15,9.20
2008,05,21,19,16,9.10
2008,05,21,19,17,9.10
2008,05,21,19,18,9.20
2008,05,21,19,19,9.20
2008,05,21,19,20,9.20
2008,05,21,19,21,9.20
2008,05,21,19,22,9.20
2008,05,21,19,23,9.30
2008,05,21,19,24,9.30
2008,05,21,19,25,9.30
2008,05,21,19,26,9.20
2008,05,21,19,27,9.20
2008,05,21,19,28,9.20
2008,05,21,19,29,9.20
2008,05,21,19,30,9.20
2008,05,21,19,31,9.10
2008,05,21,19,32,9.10
2008,05,21,19,33,9.10
2008,05,21,19,34,9.00
2008,05,21,19,35,9.00
2008,05,21,19,36,8.90
2008,05,21,19,37,8.90
2008,05,21,19,38,8.90
2008,05,21,19,39,8.90
2008,05,21,19,40,8.90
2008,05,21,19,41,8.90
2008,05,21,19,42,8.90
2008,05,21,19,43,8.80
2008,05,21,19,44,8.80
2008,05,21,19,45,8.80
2008,05,21,19,46,8.80
2008,05,21,19,47,8.70
2008,05,21,19,48,8.70
2008,05,21,19,49,8.70
2008,05,21,19,50,8.70
2008,05,21,19,51,8.70
2008,05,21,19,52,8.70
2008,05,21,19,53,8.60
2008,05,21,19,54,8.60
2008,05,21,19,55,8.60
2008,05,21,19,56,8.60
2008,05,21,19,57,8.60
2008,05,21,19,58,8.60
2008,05,21,19,59,8.60
2008,05,21,20,00,8.50
2008,05,21,20,01,8.50
2008,05,21,20,02,8.50
2008,05,21,20,03,8.40
2008,05,21,20,04,8.40
2008,05,21,20,05,8.40
2008,05,21,20,06,8.30
2008,05,21,20,07,8.30
2008,05,21,20,08,8.30
2008,05,21,20,09,8.30
2008,05,21,20,10,8.20
2008,05,21,20,11,8.20
2008,05,21,20,12,8.20
2008,05,21,20,13,8.20
2008,05,21,20,14,8.20
2008,05,21,20,15,8.20
2008,05,21,20,16,8.20
2008,05,21,20,17,8.20
2008,05,21,20,18,8.20
2008,05,21,20,19,8.20
2008,05,21,20,20,8.20
2008,05,21,20,21,8.10
2008,05,21,20,22,8.10
2008,05,21,20,23,8.10
2008,05,21,20,24,8.10
2008,05,21,20,25,8.10
2008,05,21,20,26,8.10
2008,05,21,20,27,8.00
2008,05,21,20,28,8.10
2008,05,21,20,29,8.00
2008,05,21,20,30,8.00
2008,05,21,20,31,8.00
2008,05,21,20,32,8.00
2008,05,21,20,33,8.00
2008,05,21,20,34,8.00
2008,05,21,20,35,7.90
2008,05,21,20,36,7.90
2008,05,21,20,37,7.90
2008,05,21,20,38,7.90
2008,05,21,20,39,7.90
2008,05,21,20,40,7.90
2008,05,21,20,41,7.90
2008,05,21,20,42,7.90
2008,05,21,20,43,7.80
2008,05,21,20,44,7.80
2008,05,21,20,45,7.80
2008,05,21,20,46,7.80
2008,05,21,20,47,7.80
2008,05,21,20,48,7.80
2008,05,21,20,49,7.80
2008,05,21,20,50,7.80
2008,05,21,20,51,7.80
2008,05,21,20,52,7.80
2008,05,21,20,53,7.80
2008,05,21,20,54,7.70
2008,05,21,20,55,7.70
2008,05,21,20,56,7.70
2008,05,21,20,57,7.70
2008,05,21,20,58,7.70
2008,05,21,20,59,7.70
2008,05,21,21,00,7.70
2008,05,21,21,01,7.70
2008,05,21,21,02,7.70
2008,05,21,21,03,7.70
2008,05,21,21,04,7.70
2008,05,21,21,05,7.70
2008,05,21,21,06,7.70
2008,05,21,21,07,7.70
2008,05,21,21,08,7.70
2008,05,21,21,09,7.70
2008,05,21,21,10,7.70
2008,05,21,21,11,7.70
2008,05,21,21,12,7.70
2008,05,21,21,13,7.70
2008,05,21,21,14,7.70
2008,05,21,21,15,7.70
2008,05,21,21,16,7.60
2008,05,21,21,17,7.60
2008,05,21,21,18,7.60
2008,05,21,21,19,7.60
2008,05,21,21,20,7.60
2008,05,21,21,21,7.60
2008,05,21,21,22,7.60
2008,05,21,21,23,7.60
2008,05,21,21,24,7.60
2008,05,21,21,25,7.60
2008,05,21,21,26,7.60
2008,05,21,21,27,7.60
2008,05,21,21,28,7.60
2008,05,21,21,29,7.60
2008,05,21,21,30,7.60
2008,05,21,21,31,7.60
2008,05,21,21,32,7.60
2008,05,21,21,33,7.60
2008,05,21,21,34,7.60
2008,05,21,21,35,7.60
2008,05,21,21,36,7.50
2008,05,21,21,37,7.50
2008,05,21,21,38,7.50
2008,05,21,21,39,7.50
2008,05,21,21,40,7.50
2008,05,21,21,41,7.50
2008,05,21,21,42,7.50
2008,05,21,21,43,7.50
2008,05,21,21,44,7.50
2008,05,21,21,45,7.50
2008,05,21,21,46,7.50
2008,05,21,21,47,7.50
2008,05,21,21,48,7.50
2008,05,21,21,49,7.60
2008,05,21,21,50,7.60
2008,05,21,21,51,7.60
2008,05,21,21,52,7.60
2008,05,21,21,53,7.60
2008,05,21,21,54,7.60
2008,05,21,21,55,7.60
2008,05,21,21,56,7.60
2008,05,21,21,57,7.60
2008,05,21,21,58,7.60
2008,05,21,21,59,7.60
2008,05,21,22,00,7.60
2008,05,21,22,01,7.60
2008,05,21,22,02,7.60
2008,05,21,22,03,7.60
2008,05,21,22,04,7.60
2008,05,21,22,05,7.60
2008,05,21,22,06,7.60
2008,05,21,22,07,7.60
2008,05,21,22,08,7.60
2008,05,21,22,09,7.60
2008,05,21,22,10,7.60
2008,05,21,22,11,7.60
2008,05,21,22,12,7.60
2008,05,21,22,13,7.50
2008,05,21,22,14,7.50
2008,05,21,22,15,7.50
2008,05,21,22,16,7.50
2008,05,21,22,17,7.50
2008,05,21,22,18,7.50
2008,05,21,22,19,7.50
2008,05,21,22,20,7.40
2008,05,21,22,21,7.40
2008,05,21,22,22,7.40
2008,05,21,22,23,7.40
2008,05,21,22,24,7.40
2008,05,21,22,25,7.40
2008,05,21,22,26,7.40
2008,05,21,22,27,7.40
2008,05,21,22,28,7.40
2008,05,21,22,29,7.40
2008,05,21,22,30,7.40
2008,05,21,22,31,7.40
2008,05,21,22,32,7.40
2008,05,21,22,33,7.40
2008,05,21,22,34,7.40
2008,05,21,22,35,7.40
2008,05,21,22,36,7.40
2008,05,21,22,37,7.40
2008,05,21,22,38,7.40
2008,05,21,22,39,7.40
2008,05,21,22,40,7.40
2008,05,21,22,41,7.40
2008,05,21,22,42,7.40
2008,05,21,22,43,7.40
2008,05,21,22,44,7.40
2008,05,21,22,45,7.40
2008,05,21,22,46,7.40
2008,05,21,22,47,7.40
2008,05,21,22,48,7.40
2008,05,21,22,49,7.40
2008,05,21,22,50,7.40
2008,05,21,22,51,7.40
2008,05,21,22,52,7.40
2008,05,21,22,53,7.40
2008,05,21,22,54,7.40
2008,05,21,22,55,7.30
2008,05,21,22,56,7.40
2008,05,21,22,57,7.30
2008,05,21,22,58,7.40
2008,05,21,22,59,7.40
2008,05,21,23,00,7.40
2008,05,21,23,01,7.40
2008,05,21,23,02,7.40
2008,05,21,23,03,7.40
2008,05,21,23,04,7.40
2008,05,21,23,05,7.40
2008,05,21,23,06,7.40
2008,05,21,23,07,7.40
2008,05,21,23,08,7.40
2008,05,21,23,09,7.40
2008,05,21,23,10,7.40
2008,05,21,23,11,7.40
2008,05,21,23,12,7.40
2008,05,21,23,13,7.40
2008,05,21,23,14,7.40
2008,05,21,23,15,7.40
2008,05,21,23,16,7.50
2008,05,21,23,17,7.50
2008,05,21,23,18,7.50
2008,05,21,23,19,7.50
2008,05,21,23,20,7.50
2008,05,21,23,21,7.50
2008,05,21,23,22,7.50
2008,05,21,23,23,7.50
2008,05,21,23,24,7.50
2008,05,21,23,25,7.50
2008,05,21,23,26,7.60
2008,05,21,23,27,7.60
2008,05,21,23,28,7.60
2008,05,21,23,29,7.60
2008,05,21,23,30,7.60
2008,05,21,23,31,7.60
2008,05,21,23,32,7.60
2008,05,21,23,33,7.60
2008,05,21,23,34,7.60
2008,05,21,23,35,7.50
2008,05,21,23,36,7.50
2008,05,21,23,37,7.50
2008,05,21,23,38,7.50
2008,05,21,23,39,7.50
2008,05,21,23,40,7.50
2008,05,21,23,41,7.50
2008,05,21,23,42,7.50
2008,05,21,23,43,7.50
2008,05,21,23,44,7.60
2008,05,21,23,45,7.60
2008,05,21,23,46,7.60
2008,05,21,23,47,7.60
2008,05,21,23,48,7.60
2008,05,21,23,49,7.60
2008,05,21,23,50,7.60
2008,05,21,23,51,7.60
2008,05,21,23,52,7.60
2008,05,21,23,53,7.60
2008,05,21,23,54,7.60
2008,05,21,23,55,7.60
2008,05,21,23,56,7.60
2008,05,21,23,57,7.60
2008,05,21,23,58,7.60
2008,05,21,23,59,7.60
